Location: Biltmore Gardens
(41.6070°N, 83.4666°W)
Time: 09:41:49
(UTC+00:00)

Cosmos 2344 - Pass Details

Date: 29 October 2020
Orbit: 1246 x 2997 km, 63.3° (Epoch: 03 December)

Event Time Altitude Azimuth Distance (km) Brightness Sun altitude
Exits shadow 06:48:00 12° 60° (ENE) 3,087 5.9 -55.8°
Drops below altitude 10° 06:48:40 10° 56° (NE) 3,276 6.1 -55.7°
Sets 06:52:02 0° 44° (NE) 4,347 6.9 -55.3°
